EW1558 Weather Reports


time (UTC)temp
C
wind
direction
speed
KPH
gust
KPH
rain 1hr
cm
rain 24hr
cm
rain mn
cm
humidity
%
barometer
mb
20260504044535 15 174 0.0 4.8 0.00 0.00 0.00 66 1003.5
20260504043023 14 219 0.0 4.8 0.00 0.00 0.00 66 1003.6
20260504041520 15 284 0.0 3.2 0.00 0.00 0.00 66 1003.6
20260504040020 15 142 0.0 8.0 0.00 0.00 0.00 65 1003.8
20260504034531 15 205 0.0 6.4 0.00 0.00 0.00 65 1003.9
20260504033025 15 227 0.0 6.4 0.00 0.00 0.00 64 1004.0
20260504031519 15 229 1.6 6.4 0.00 0.00 0.00 64 1004.1
20260504030018 15 240 0.0 3.2 0.00 0.00 0.00 64 1004.2
20260504024521 15 240 0.0 1.6 0.00 0.00 0.00 63 1004.2
20260504023017 15 240 0.0 3.2 0.00 0.00 0.00 62 1004.2
20260504021520 15 223 0.0 1.6 0.00 0.00 0.00 61 1004.0
20260504020017 15 223 0.0 3.2 0.00 0.00 0.00 60 1004.0
20260504014518 16 223 0.0 3.2 0.00 0.00 0.00 58 1003.8
20260504013022 17 223 0.0 1.6 0.00 0.00 0.00 55 1003.6
20260504011513 17 223 0.0 0.0 0.00 0.00 0.00 53 1003.5
20260504010013 18 223 0.0 3.2 0.00 0.00 0.00 50 1003.4
20260504004515 18 223 0.0 4.8 0.00 0.00 0.00 48 1003.4
20260504003012 19 221 0.0 8.0 0.00 0.00 0.00 46 1003.5
20260504001512 20 284 0.0 11.3 0.00 0.00 0.00 45 1003.4
20260504000011 20 313 1.6 16.1 0.00 0.00 0.00 44 1003.4
20260503234511 20 329 3.2 12.9 0.00 0.00 0.00 45 1003.4
20260503233010 20 207 3.2 14.5 0.00 0.00 0.00 45 1003.4
20260503231509 20 221 4.8 19.3 0.00 0.00 0.00 45 1003.5
20260503230009 20 221 4.8 25.7 0.00 0.00 0.00 44 1003.7
20260503224506 20 253 3.2 14.5 0.00 0.00 0.00 44 1003.8
20260503223006 20 261 1.6 24.1 0.00 0.00 0.00 44 1003.9
20260503221503 20 238 6.4 25.7 0.00 0.00 0.00 43 1004.1
20260503220002 20 207 3.2 24.1 0.00 0.00 0.00 43 1004.3
20260503214600 19 278 1.6 19.3 0.00 0.00 0.00 44 1004.4
20260503213059 20 235 4.8 16.1 0.00 0.00 0.00 42 1004.6
20260503211608 20 214 6.4 27.4 0.00 0.00 0.00 42 1004.7
20260503210057 19 141 8.0 22.5 0.00 0.00 0.00 42 1004.9
20260503204556 19 232 11.3 19.3 0.00 0.00 0.00 44 1005.2
20260503203050 18 195 11.3 24.1 0.00 0.00 0.00 45 1005.6
20260503201546 17 221 8.0 27.4 0.00 0.00 0.00 50 1006.1
20260503200044 17 158 4.8 19.3 0.00 0.00 0.00 49 1006.5
20260503194539 16 263 3.2 32.2 0.00 0.00 0.00 51 1006.6
20260503193047 16 207 12.9 30.6 0.00 0.00 0.00 50 1006.6
20260503191538 16 267 12.9 27.4 0.00 0.00 0.00 50 1006.9
20260503190036 16 207 16.1 37.0 0.00 0.00 0.00 50 1007.1
20260503184530 15 191 8.0 22.5 0.00 0.00 0.00 54 1007.3
20260503183035 14 223 12.9 46.7 0.00 0.00 0.00 56 1007.7
20260503181540 14 222 11.3 40.2 0.00 0.00 0.00 56 1007.9
20260503180021 15 218 9.7 29.0 0.00 0.00 0.00 57 1008.4
20260503174520 14 215 19.3 35.4 0.00 0.00 0.00 58 1008.9
20260503173037 14 291 9.7 24.1 0.00 0.00 0.00 61 1009.4
20260503171515 13 223 11.3 27.4 0.00 0.00 0.00 65 1009.7
20260503150107 13 190 4.8 16.1 0.00 0.00 0.00 58 1011.1
20260503081516 8 132 1.6 11.3 0.00 0.00 0.00 57 1012.9
20260503071506 8 227 0.0 12.9 0.00 0.00 0.00 59 1013.1
20260503060115 8 227 1.6 6.4 0.00 0.00 0.00 61 1013.8
20260503054554 7 203 0.0 4.8 0.00 0.00 0.00 62 1013.9
20260503053052 7 269 0.0 1.6 0.00 0.00 0.00 64 1014.1
20260503051550 7 251 0.0 3.2 0.00 0.00 0.00 64 1014.3
20260503050047 7 251 0.0 3.2 0.00 0.00 0.00 65 1014.4